Year,Month,Day,Hour,Minute,Value (Times are PST for windspeed in km/hr)
2010,04,04,00,00,0.00
2010,04,04,00,01,0.00
2010,04,04,00,02,0.00
2010,04,04,00,03,0.00
2010,04,04,00,04,2.10
2010,04,04,00,05,0.90
2010,04,04,00,06,0.00
2010,04,04,00,07,0.00
2010,04,04,00,08,0.00
2010,04,04,00,09,0.00
2010,04,04,00,10,0.00
2010,04,04,00,11,0.50
2010,04,04,00,12,0.50
2010,04,04,00,13,0.00
2010,04,04,00,14,0.00
2010,04,04,00,15,0.00
2010,04,04,00,16,0.00
2010,04,04,00,17,0.00
2010,04,04,00,18,0.00
2010,04,04,00,19,0.00
2010,04,04,00,20,0.00
2010,04,04,00,21,0.00
2010,04,04,00,22,0.00
2010,04,04,00,23,0.00
2010,04,04,00,24,0.00
2010,04,04,00,25,0.20
2010,04,04,00,26,0.00
2010,04,04,00,27,0.10
2010,04,04,00,28,0.60
2010,04,04,00,29,1.20
2010,04,04,00,30,0.10
2010,04,04,00,31,0.20
2010,04,04,00,32,0.80
2010,04,04,00,33,1.30
2010,04,04,00,34,1.10
2010,04,04,00,35,0.90
2010,04,04,00,36,0.30
2010,04,04,00,37,0.10
2010,04,04,00,38,0.60
2010,04,04,00,39,0.20
2010,04,04,00,40,0.10
2010,04,04,00,41,0.00
2010,04,04,00,42,1.50
2010,04,04,00,43,1.00
2010,04,04,00,44,0.50
2010,04,04,00,45,2.20
2010,04,04,00,46,0.10
2010,04,04,00,47,0.00
2010,04,04,00,48,0.00
2010,04,04,00,49,0.00
2010,04,04,00,50,0.00
2010,04,04,00,51,0.00
2010,04,04,00,52,0.00
2010,04,04,00,53,0.00
2010,04,04,00,54,0.00
2010,04,04,00,55,0.00
2010,04,04,00,56,0.00
2010,04,04,00,57,0.30
2010,04,04,00,58,0.00
2010,04,04,00,59,0.00
2010,04,04,01,00,0.40
2010,04,04,01,01,1.10
2010,04,04,01,02,1.10
2010,04,04,01,03,0.10
2010,04,04,01,04,1.10
2010,04,04,01,05,1.10
2010,04,04,01,06,0.80
2010,04,04,01,07,0.00
2010,04,04,01,08,0.00
2010,04,04,01,09,0.20
2010,04,04,01,10,2.60
2010,04,04,01,11,2.00
2010,04,04,01,12,1.10
2010,04,04,01,13,1.20
2010,04,04,01,14,3.30
2010,04,04,01,15,2.00
2010,04,04,01,16,0.40
2010,04,04,01,17,4.80
2010,04,04,01,18,3.10
2010,04,04,01,19,0.10
2010,04,04,01,20,2.40
2010,04,04,01,21,1.60
2010,04,04,01,22,0.30
2010,04,04,01,23,0.00
2010,04,04,01,24,1.80
2010,04,04,01,25,1.20
2010,04,04,01,26,3.70
2010,04,04,01,27,2.80
2010,04,04,01,28,0.90
2010,04,04,01,29,0.50
2010,04,04,01,30,3.20
2010,04,04,01,31,1.10
2010,04,04,01,32,1.50
2010,04,04,01,33,1.00
2010,04,04,01,34,0.00
2010,04,04,01,35,2.30
2010,04,04,01,36,1.60
2010,04,04,01,37,1.00
2010,04,04,01,38,1.00
2010,04,04,01,39,2.60
2010,04,04,01,40,2.30
2010,04,04,01,41,3.20
2010,04,04,01,42,3.60
2010,04,04,01,43,4.10
2010,04,04,01,44,0.00
2010,04,04,01,45,0.00
2010,04,04,01,46,0.00
2010,04,04,01,47,0.20
2010,04,04,01,48,2.70
2010,04,04,01,49,0.50
2010,04,04,01,50,0.80
2010,04,04,01,51,0.40
2010,04,04,01,52,0.10
2010,04,04,01,53,0.00
2010,04,04,01,54,1.80
2010,04,04,01,55,4.40
2010,04,04,01,56,3.00
2010,04,04,01,57,7.30
2010,04,04,01,58,4.20
2010,04,04,01,59,4.90
2010,04,04,02,00,3.70
2010,04,04,02,01,3.30
2010,04,04,02,02,3.10
2010,04,04,02,03,0.90
2010,04,04,02,04,0.30
2010,04,04,02,05,1.00
2010,04,04,02,06,2.60
2010,04,04,02,07,1.30
2010,04,04,02,08,3.90
2010,04,04,02,09,1.90
2010,04,04,02,10,4.10
2010,04,04,02,11,2.40
2010,04,04,02,12,2.60
2010,04,04,02,13,2.60
2010,04,04,02,14,7.30
2010,04,04,02,15,4.90
2010,04,04,02,16,5.10
2010,04,04,02,17,5.80
2010,04,04,02,18,4.30
2010,04,04,02,19,1.00
2010,04,04,02,20,3.60
2010,04,04,02,21,3.60
2010,04,04,02,22,1.90
2010,04,04,02,23,3.80
2010,04,04,02,24,4.00
2010,04,04,02,25,5.10
2010,04,04,02,26,2.10
2010,04,04,02,27,1.60
2010,04,04,02,28,4.10
2010,04,04,02,29,3.50
2010,04,04,02,30,4.90
2010,04,04,02,31,3.70
2010,04,04,02,32,5.10
2010,04,04,02,33,5.10
2010,04,04,02,34,8.00
2010,04,04,02,35,7.20
2010,04,04,02,36,6.80
2010,04,04,02,37,4.60
2010,04,04,02,38,3.60
2010,04,04,02,39,2.10
2010,04,04,02,40,3.30
2010,04,04,02,41,3.80
2010,04,04,02,42,4.60
2010,04,04,02,43,6.10
2010,04,04,02,44,3.40
2010,04,04,02,45,5.10
2010,04,04,02,46,3.30
2010,04,04,02,47,3.30
2010,04,04,02,48,4.90
2010,04,04,02,49,7.10
2010,04,04,02,50,8.00
2010,04,04,02,51,2.70
2010,04,04,02,52,2.70
2010,04,04,02,53,5.70
2010,04,04,02,54,8.80
2010,04,04,02,55,4.10
2010,04,04,02,56,6.40
2010,04,04,02,57,3.70
2010,04,04,02,58,6.30
2010,04,04,02,59,2.40
2010,04,04,03,00,3.50
2010,04,04,03,01,5.10
2010,04,04,03,02,7.30
2010,04,04,03,03,5.30
2010,04,04,03,04,4.90
2010,04,04,03,05,3.10
2010,04,04,03,06,4.60
2010,04,04,03,07,6.50
2010,04,04,03,08,7.60
2010,04,04,03,09,9.40
2010,04,04,03,10,5.30
2010,04,04,03,11,3.80
2010,04,04,03,12,7.50
2010,04,04,03,13,6.40
2010,04,04,03,14,3.10
2010,04,04,03,15,5.60
2010,04,04,03,16,6.20
2010,04,04,03,17,5.30
2010,04,04,03,18,6.50
2010,04,04,03,19,4.60
2010,04,04,03,20,4.80
2010,04,04,03,21,5.40
2010,04,04,03,22,7.30
2010,04,04,03,23,7.20
2010,04,04,03,24,6.60
2010,04,04,03,25,8.60
2010,04,04,03,26,3.70
2010,04,04,03,27,5.00
2010,04,04,03,28,5.70
2010,04,04,03,29,12.60
2010,04,04,03,30,5.20
2010,04,04,03,31,3.50
2010,04,04,03,32,6.70
2010,04,04,03,33,5.40
2010,04,04,03,34,2.10
2010,04,04,03,35,3.50
2010,04,04,03,36,0.90
2010,04,04,03,37,6.20
2010,04,04,03,38,9.30
2010,04,04,03,39,12.10
2010,04,04,03,40,8.00
2010,04,04,03,41,5.90
2010,04,04,03,42,10.50
2010,04,04,03,43,13.80
2010,04,04,03,44,10.30
2010,04,04,03,45,5.20
2010,04,04,03,46,4.20
2010,04,04,03,47,8.70
2010,04,04,03,48,10.10
2010,04,04,03,49,12.40
2010,04,04,03,50,12.60
2010,04,04,03,51,10.90
2010,04,04,03,52,12.80
2010,04,04,03,53,10.10
2010,04,04,03,54,3.70
2010,04,04,03,55,6.50
2010,04,04,03,56,4.50
2010,04,04,03,57,4.30
2010,04,04,03,58,2.40
2010,04,04,03,59,3.80
2010,04,04,04,00,7.40
2010,04,04,04,01,7.80
2010,04,04,04,02,3.90
2010,04,04,04,03,8.20
2010,04,04,04,04,5.50
2010,04,04,04,05,5.50
2010,04,04,04,06,6.40
2010,04,04,04,07,4.50
2010,04,04,04,08,7.20
2010,04,04,04,09,9.20
2010,04,04,04,10,10.60
2010,04,04,04,11,7.60
2010,04,04,04,12,6.10
2010,04,04,04,13,4.80
2010,04,04,04,14,7.30
2010,04,04,04,15,4.90
2010,04,04,04,16,3.70
2010,04,04,04,17,3.80
2010,04,04,04,18,3.50
2010,04,04,04,19,3.00
2010,04,04,04,20,5.30
2010,04,04,04,21,7.30
2010,04,04,04,22,7.10
2010,04,04,04,23,4.50
2010,04,04,04,24,7.10
2010,04,04,04,25,9.80
2010,04,04,04,26,7.50
2010,04,04,04,27,5.60
2010,04,04,04,28,4.90
2010,04,04,04,29,7.50
2010,04,04,04,30,5.60
2010,04,04,04,31,6.50
2010,04,04,04,32,9.80
2010,04,04,04,33,8.80
2010,04,04,04,34,3.90
2010,04,04,04,35,2.50
2010,04,04,04,36,3.70
2010,04,04,04,37,5.60
2010,04,04,04,38,4.60
2010,04,04,04,39,11.10
2010,04,04,04,40,10.30
2010,04,04,04,41,7.00
2010,04,04,04,42,16.20
2010,04,04,04,43,9.90
2010,04,04,04,44,14.80
2010,04,04,04,45,9.50
2010,04,04,04,46,11.60
2010,04,04,04,47,11.70
2010,04,04,04,48,6.60
2010,04,04,04,49,9.70
2010,04,04,04,50,7.00
2010,04,04,04,51,7.70
2010,04,04,04,52,5.30
2010,04,04,04,53,5.80
2010,04,04,04,54,3.70
2010,04,04,04,55,6.30
2010,04,04,04,56,2.70
2010,04,04,04,57,4.50
2010,04,04,04,58,3.80
2010,04,04,04,59,5.70
2010,04,04,05,00,4.50
2010,04,04,05,01,12.80
2010,04,04,05,02,9.80
2010,04,04,05,03,6.40
2010,04,04,05,04,6.30
2010,04,04,05,05,3.40
2010,04,04,05,06,7.00
2010,04,04,05,07,3.30
2010,04,04,05,08,2.40
2010,04,04,05,09,4.40
2010,04,04,05,10,4.20
2010,04,04,05,11,2.70
2010,04,04,05,12,0.60
2010,04,04,05,13,2.50
2010,04,04,05,14,2.60
2010,04,04,05,15,5.00
2010,04,04,05,16,1.60
2010,04,04,05,17,2.50
2010,04,04,05,18,2.60
2010,04,04,05,19,2.30
2010,04,04,05,20,2.90
2010,04,04,05,21,7.70
2010,04,04,05,22,3.80
2010,04,04,05,23,5.30
2010,04,04,05,24,10.90
2010,04,04,05,25,4.70
2010,04,04,05,26,4.10
2010,04,04,05,27,1.60
2010,04,04,05,28,9.90
2010,04,04,05,29,2.80
2010,04,04,05,30,3.10
2010,04,04,05,31,6.20
2010,04,04,05,32,9.50
2010,04,04,05,33,10.70
2010,04,04,05,34,4.60
2010,04,04,05,35,8.00
2010,04,04,05,36,7.60
2010,04,04,05,37,8.20
2010,04,04,05,38,6.30
2010,04,04,05,39,5.70
2010,04,04,05,40,6.70
2010,04,04,05,41,10.80
2010,04,04,05,42,5.70
2010,04,04,05,43,12.10
2010,04,04,05,44,12.00
2010,04,04,05,45,10.00
2010,04,04,05,46,14.00
2010,04,04,05,47,13.90
2010,04,04,05,48,12.50
2010,04,04,05,49,10.30
2010,04,04,05,50,7.40
2010,04,04,05,51,7.10
2010,04,04,05,52,4.30
2010,04,04,05,53,7.80
2010,04,04,05,54,11.40
2010,04,04,05,55,7.00
2010,04,04,05,56,3.90
2010,04,04,05,57,4.60
2010,04,04,05,58,4.70
2010,04,04,05,59,2.50
2010,04,04,06,00,6.50
2010,04,04,06,01,11.90
2010,04,04,06,02,6.10
2010,04,04,06,03,10.70
2010,04,04,06,04,11.00
2010,04,04,06,05,6.00
2010,04,04,06,06,5.70
2010,04,04,06,07,5.30
2010,04,04,06,08,7.00
2010,04,04,06,09,11.80
2010,04,04,06,10,17.90
2010,04,04,06,11,13.80
2010,04,04,06,12,13.00
2010,04,04,06,13,12.30
2010,04,04,06,14,8.10
2010,04,04,06,15,10.60
2010,04,04,06,16,14.10
2010,04,04,06,17,10.60
2010,04,04,06,18,5.70
2010,04,04,06,19,14.40
2010,04,04,06,20,11.40
2010,04,04,06,21,11.30
2010,04,04,06,22,10.30
2010,04,04,06,23,19.70
2010,04,04,06,24,12.00
2010,04,04,06,25,8.70
2010,04,04,06,26,14.90
2010,04,04,06,27,18.70
2010,04,04,06,28,12.40
2010,04,04,06,29,12.40
2010,04,04,06,30,12.50
2010,04,04,06,31,19.30
2010,04,04,06,32,19.30
2010,04,04,06,33,12.00
2010,04,04,06,34,14.30
2010,04,04,06,35,8.10
2010,04,04,06,36,11.10
2010,04,04,06,37,5.50
2010,04,04,06,38,6.90
2010,04,04,06,39,7.90
2010,04,04,06,40,16.90
2010,04,04,06,41,5.20
2010,04,04,06,42,4.60
2010,04,04,06,43,9.70
2010,04,04,06,44,10.60
2010,04,04,06,45,12.70
2010,04,04,06,46,8.30
2010,04,04,06,47,6.20
2010,04,04,06,48,3.30
2010,04,04,06,49,10.20
2010,04,04,06,50,11.60
2010,04,04,06,51,11.50
2010,04,04,06,52,4.50
2010,04,04,06,53,4.30
2010,04,04,06,54,6.10
2010,04,04,06,55,4.70
2010,04,04,06,56,8.60
2010,04,04,06,57,6.50
2010,04,04,06,58,6.90
2010,04,04,06,59,11.20
2010,04,04,07,00,10.60
2010,04,04,07,01,17.60
2010,04,04,07,02,10.80
2010,04,04,07,03,8.50
2010,04,04,07,04,6.90
2010,04,04,07,05,3.60
2010,04,04,07,06,6.00
2010,04,04,07,07,2.20
2010,04,04,07,08,1.60
2010,04,04,07,09,0.10
2010,04,04,07,10,0.20
2010,04,04,07,11,1.30
2010,04,04,07,12,2.50
2010,04,04,07,13,2.20
2010,04,04,07,14,0.00
2010,04,04,07,15,0.30
2010,04,04,07,16,1.90
2010,04,04,07,17,1.30
2010,04,04,07,18,4.80
2010,04,04,07,19,5.80
2010,04,04,07,20,3.40
2010,04,04,07,21,3.30
2010,04,04,07,22,0.60
2010,04,04,07,23,1.80
2010,04,04,07,24,0.10
2010,04,04,07,25,0.00
2010,04,04,07,26,0.90
2010,04,04,07,27,0.00
2010,04,04,07,28,1.30
2010,04,04,07,29,2.70
2010,04,04,07,30,0.80
2010,04,04,07,31,5.80
2010,04,04,07,32,2.40
2010,04,04,07,33,2.00
2010,04,04,07,34,1.70
2010,04,04,07,35,1.50
2010,04,04,07,36,1.60
2010,04,04,07,37,0.20
2010,04,04,07,38,0.10
2010,04,04,07,39,1.50
2010,04,04,07,40,3.50
2010,04,04,07,41,9.70
2010,04,04,07,42,8.40
2010,04,04,07,43,6.10
2010,04,04,07,44,3.50
2010,04,04,07,45,5.50
2010,04,04,07,46,6.60
2010,04,04,07,47,4.50
2010,04,04,07,48,1.20
2010,04,04,07,49,1.40
2010,04,04,07,50,0.10
2010,04,04,07,51,2.30
2010,04,04,07,52,5.70
2010,04,04,07,53,7.10
2010,04,04,07,54,8.20
2010,04,04,07,55,5.40
2010,04,04,07,56,8.90
2010,04,04,07,57,4.40
2010,04,04,07,58,0.80
2010,04,04,07,59,1.00
2010,04,04,08,00,0.70
2010,04,04,08,01,6.20
2010,04,04,08,02,9.20
2010,04,04,08,03,10.40
2010,04,04,08,04,6.60
2010,04,04,08,05,1.40
2010,04,04,08,06,4.00
2010,04,04,08,07,10.70
2010,04,04,08,08,14.80
2010,04,04,08,09,5.60
2010,04,04,08,10,5.10
2010,04,04,08,11,6.20
2010,04,04,08,12,7.70
2010,04,04,08,13,19.50
2010,04,04,08,14,19.50
2010,04,04,08,15,8.80
2010,04,04,08,16,3.00
2010,04,04,08,17,8.10
2010,04,04,08,18,13.20
2010,04,04,08,19,3.40
2010,04,04,08,20,5.10
2010,04,04,08,21,8.50
2010,04,04,08,22,7.10
2010,04,04,08,23,6.00
2010,04,04,08,24,5.30
2010,04,04,08,25,6.80
2010,04,04,08,26,5.70
2010,04,04,08,27,4.30
2010,04,04,08,28,8.00
2010,04,04,08,29,9.10
2010,04,04,08,30,14.50
2010,04,04,08,31,5.40
2010,04,04,08,32,6.50
2010,04,04,08,33,10.60
2010,04,04,08,34,6.50
2010,04,04,08,35,9.50
2010,04,04,08,36,7.50
2010,04,04,08,37,11.20
2010,04,04,08,38,9.20
2010,04,04,08,39,3.50
2010,04,04,08,40,6.20
2010,04,04,08,41,3.40
2010,04,04,08,42,4.50
2010,04,04,08,43,6.00
2010,04,04,08,44,7.40
2010,04,04,08,45,11.10
2010,04,04,08,46,8.60
2010,04,04,08,47,20.50
2010,04,04,08,48,9.20
2010,04,04,08,49,5.70
2010,04,04,08,50,2.30
2010,04,04,08,51,4.40
2010,04,04,08,52,5.30
2010,04,04,08,53,9.80
2010,04,04,08,54,11.80
2010,04,04,08,55,9.70
2010,04,04,08,56,11.80
2010,04,04,08,57,11.30
2010,04,04,08,58,8.70
2010,04,04,08,59,12.50
2010,04,04,09,00,5.80
2010,04,04,09,01,8.80
2010,04,04,09,02,7.60
2010,04,04,09,03,11.00
2010,04,04,09,04,11.10
2010,04,04,09,05,15.90
2010,04,04,09,06,7.20
2010,04,04,09,07,14.00
2010,04,04,09,08,14.40
2010,04,04,09,09,9.80
2010,04,04,09,10,7.30
2010,04,04,09,11,5.70
2010,04,04,09,12,1.00
2010,04,04,09,13,9.70
2010,04,04,09,14,10.40
2010,04,04,09,15,9.20
2010,04,04,09,16,4.30
2010,04,04,09,17,14.90
2010,04,04,09,18,16.20
2010,04,04,09,19,12.80
2010,04,04,09,20,12.80
2010,04,04,09,21,5.50
2010,04,04,09,22,5.70
2010,04,04,09,23,14.60
2010,04,04,09,24,11.30
2010,04,04,09,25,11.90
2010,04,04,09,26,5.60
2010,04,04,09,27,8.40
2010,04,04,09,28,10.60
2010,04,04,09,29,10.50
2010,04,04,09,30,11.70
2010,04,04,09,31,9.10
2010,04,04,09,32,6.30
2010,04,04,09,33,14.20
2010,04,04,09,34,16.20
2010,04,04,09,35,11.00
2010,04,04,09,36,14.60
2010,04,04,09,37,13.30
2010,04,04,09,38,12.50
2010,04,04,09,39,12.50
2010,04,04,09,40,11.40
2010,04,04,09,41,15.10
2010,04,04,09,42,9.30
2010,04,04,09,43,15.20
2010,04,04,09,44,4.00
2010,04,04,09,45,6.10
2010,04,04,09,46,9.10
2010,04,04,09,47,11.00
2010,04,04,09,48,11.60
2010,04,04,09,49,14.90
2010,04,04,09,50,20.70
2010,04,04,09,51,10.40
2010,04,04,09,52,18.40
2010,04,04,09,53,10.90
2010,04,04,09,54,17.00
2010,04,04,09,55,7.00
2010,04,04,09,56,4.30
2010,04,04,09,57,0.30
2010,04,04,09,58,2.90
2010,04,04,09,59,2.70
2010,04,04,10,00,10.40
2010,04,04,10,01,11.30
2010,04,04,10,02,16.00
2010,04,04,10,03,6.60
2010,04,04,10,04,4.20
2010,04,04,10,05,7.50
2010,04,04,10,06,6.90
2010,04,04,10,07,11.10
2010,04,04,10,08,11.70
2010,04,04,10,09,11.00
2010,04,04,10,10,12.60
2010,04,04,10,11,18.60
2010,04,04,10,12,14.20
2010,04,04,10,13,11.60
2010,04,04,10,14,16.30
2010,04,04,10,15,16.80
2010,04,04,10,16,17.40
2010,04,04,10,17,12.40
2010,04,04,10,18,16.10
2010,04,04,10,19,13.90
2010,04,04,10,20,14.70
2010,04,04,10,21,14.30
2010,04,04,10,22,9.30
2010,04,04,10,23,12.10
2010,04,04,10,24,11.50
2010,04,04,10,25,13.90
2010,04,04,10,26,21.60
2010,04,04,10,27,16.50
2010,04,04,10,28,9.90
2010,04,04,10,29,13.60
2010,04,04,10,30,9.00
2010,04,04,10,31,13.30
2010,04,04,10,32,18.10
2010,04,04,10,33,22.20
2010,04,04,10,34,16.50
2010,04,04,10,35,15.00
2010,04,04,10,36,12.90
2010,04,04,10,37,18.70
2010,04,04,10,38,15.50
2010,04,04,10,39,15.50
2010,04,04,10,40,14.70
2010,04,04,10,41,12.00
2010,04,04,10,42,14.60
2010,04,04,10,43,17.70
2010,04,04,10,44,11.80
2010,04,04,10,45,15.90
2010,04,04,10,46,7.00
2010,04,04,10,47,9.80
2010,04,04,10,48,10.30
2010,04,04,10,49,9.10
2010,04,04,10,50,13.90
2010,04,04,10,51,14.80
2010,04,04,10,52,15.40
2010,04,04,10,53,14.80
2010,04,04,10,54,15.30
2010,04,04,10,55,9.80
2010,04,04,10,56,11.70
2010,04,04,10,57,7.50
2010,04,04,10,58,17.90
2010,04,04,10,59,22.00
2010,04,04,11,00,16.30
2010,04,04,11,01,9.70
2010,04,04,11,02,12.40
2010,04,04,11,03,18.30
2010,04,04,11,04,20.40
2010,04,04,11,05,13.70
2010,04,04,11,06,13.60
2010,04,04,11,07,11.60
2010,04,04,11,08,9.60
2010,04,04,11,09,14.00
2010,04,04,11,10,8.10
2010,04,04,11,11,16.50
2010,04,04,11,12,12.80
2010,04,04,11,13,15.70
2010,04,04,11,14,21.80
2010,04,04,11,15,18.30
2010,04,04,11,16,11.90
2010,04,04,11,17,13.30
2010,04,04,11,18,17.90
2010,04,04,11,19,21.10
2010,04,04,11,20,7.60
2010,04,04,11,21,12.10
2010,04,04,11,22,20.20
2010,04,04,11,23,24.60
2010,04,04,11,24,18.40
2010,04,04,11,25,15.60
2010,04,04,11,26,19.20
2010,04,04,11,27,15.60
2010,04,04,11,28,11.90
2010,04,04,11,29,11.40
2010,04,04,11,30,21.20
2010,04,04,11,31,24.80
2010,04,04,11,32,13.70
2010,04,04,11,33,19.80
2010,04,04,11,34,17.00
2010,04,04,11,35,20.40
2010,04,04,11,36,27.40
2010,04,04,11,37,20.30
2010,04,04,11,38,23.20
2010,04,04,11,39,14.90
2010,04,04,11,40,21.60
2010,04,04,11,41,14.80
2010,04,04,11,42,16.20
2010,04,04,11,43,21.50
2010,04,04,11,44,22.30
2010,04,04,11,45,26.60
2010,04,04,11,46,18.50
2010,04,04,11,47,15.00
2010,04,04,11,48,17.60
2010,04,04,11,49,27.80
2010,04,04,11,50,27.90
2010,04,04,11,51,23.80
2010,04,04,11,52,20.00
2010,04,04,11,53,13.60
2010,04,04,11,54,20.20
2010,04,04,11,55,20.20
2010,04,04,11,56,15.70
2010,04,04,11,57,17.60
2010,04,04,11,58,24.10
2010,04,04,11,59,17.50
2010,04,04,12,00,17.60
2010,04,04,12,01,23.50
2010,04,04,12,02,14.20
2010,04,04,12,03,17.00
2010,04,04,12,04,23.90
2010,04,04,12,05,12.70
2010,04,04,12,06,10.60
2010,04,04,12,07,12.20
2010,04,04,12,08,17.00
2010,04,04,12,09,19.70
2010,04,04,12,10,16.40
2010,04,04,12,11,16.40
2010,04,04,12,12,20.00
2010,04,04,12,13,13.30
2010,04,04,12,14,17.40
2010,04,04,12,15,15.00
2010,04,04,12,16,13.70
2010,04,04,12,17,16.60
2010,04,04,12,18,12.80
2010,04,04,12,19,15.30
2010,04,04,12,20,11.50
2010,04,04,12,21,17.20
2010,04,04,12,22,21.90
2010,04,04,12,23,22.80
2010,04,04,12,24,23.60
2010,04,04,12,25,11.20
2010,04,04,12,26,16.20
2010,04,04,12,27,24.90
2010,04,04,12,28,15.60
2010,04,04,12,29,17.20
2010,04,04,12,30,10.60
2010,04,04,12,31,11.10
2010,04,04,12,32,7.80
2010,04,04,12,33,23.10
2010,04,04,12,34,14.90
2010,04,04,12,35,18.20
2010,04,04,12,36,19.00
2010,04,04,12,37,18.60
2010,04,04,12,38,18.80
2010,04,04,12,39,19.60
2010,04,04,12,40,13.30
2010,04,04,12,41,18.30
2010,04,04,12,42,19.70
2010,04,04,12,43,21.80
2010,04,04,12,44,17.00
2010,04,04,12,45,18.00
2010,04,04,12,46,20.80
2010,04,04,12,47,17.90
2010,04,04,12,48,13.40
2010,04,04,12,49,19.10
2010,04,04,12,50,13.60
2010,04,04,12,51,10.70
2010,04,04,12,52,23.40
2010,04,04,12,53,19.70
2010,04,04,12,54,14.80
2010,04,04,12,55,23.20
2010,04,04,12,56,20.90
2010,04,04,12,57,16.90
2010,04,04,12,58,17.90
2010,04,04,12,59,18.50
2010,04,04,13,00,16.80
2010,04,04,13,01,22.20
2010,04,04,13,02,16.80
2010,04,04,13,03,17.10
2010,04,04,13,04,16.30
2010,04,04,13,05,12.90
2010,04,04,13,06,21.00
2010,04,04,13,07,16.40
2010,04,04,13,08,10.70
2010,04,04,13,09,22.60
2010,04,04,13,10,14.40
2010,04,04,13,11,19.40
2010,04,04,13,12,13.70
2010,04,04,13,13,12.00
2010,04,04,13,14,7.90
2010,04,04,13,15,12.40
2010,04,04,13,16,14.80
2010,04,04,13,17,7.00
2010,04,04,13,18,12.20
2010,04,04,13,19,15.70
2010,04,04,13,20,16.90
2010,04,04,13,21,10.90
2010,04,04,13,22,9.90
2010,04,04,13,23,9.90
2010,04,04,13,24,9.80
2010,04,04,13,25,11.40
2010,04,04,13,26,7.90
2010,04,04,13,27,11.40
2010,04,04,13,28,13.30
2010,04,04,13,29,19.90
2010,04,04,13,30,18.20
2010,04,04,13,31,9.50
2010,04,04,13,32,7.30
2010,04,04,13,33,8.50
2010,04,04,13,34,7.90
2010,04,04,13,35,7.40
2010,04,04,13,36,14.80
2010,04,04,13,37,10.10
2010,04,04,13,38,15.30
2010,04,04,13,39,20.10
2010,04,04,13,40,17.40
2010,04,04,13,41,13.00
2010,04,04,13,42,19.80
2010,04,04,13,43,15.10
2010,04,04,13,44,18.00
2010,04,04,13,45,10.90
2010,04,04,13,46,16.30
2010,04,04,13,47,9.20
2010,04,04,13,48,15.30
2010,04,04,13,49,15.60
2010,04,04,13,50,13.80
2010,04,04,13,51,12.00
2010,04,04,13,52,5.50
2010,04,04,13,53,12.20
2010,04,04,13,54,14.70
2010,04,04,13,55,6.90
2010,04,04,13,56,19.00
2010,04,04,13,57,14.00
2010,04,04,13,58,13.60
2010,04,04,13,59,13.30
2010,04,04,14,00,15.90
2010,04,04,14,01,13.60
2010,04,04,14,02,19.40
2010,04,04,14,03,15.40
2010,04,04,14,04,18.70
2010,04,04,14,05,7.80
2010,04,04,14,06,8.20
2010,04,04,14,07,13.20
2010,04,04,14,08,11.70
2010,04,04,14,09,11.80
2010,04,04,14,10,13.60
2010,04,04,14,11,14.10
2010,04,04,14,12,4.30
2010,04,04,14,13,9.00
2010,04,04,14,14,14.60
2010,04,04,14,15,14.30
2010,04,04,14,16,10.60
2010,04,04,14,17,17.50
2010,04,04,14,18,20.00
2010,04,04,14,19,17.20
2010,04,04,14,20,23.20
2010,04,04,14,21,13.00
2010,04,04,14,22,14.50
2010,04,04,14,23,11.70
2010,04,04,14,24,15.90
2010,04,04,14,25,8.80
2010,04,04,14,26,12.80
2010,04,04,14,27,14.50
2010,04,04,14,28,13.40
2010,04,04,14,29,16.20
2010,04,04,14,30,18.10
2010,04,04,14,31,14.80
2010,04,04,14,32,9.80
2010,04,04,14,33,6.40
2010,04,04,14,34,7.90
2010,04,04,14,35,9.10
2010,04,04,14,36,10.40
2010,04,04,14,37,15.00
2010,04,04,14,38,14.20
2010,04,04,14,39,16.70
2010,04,04,14,40,19.90
2010,04,04,14,41,21.80
2010,04,04,14,42,15.10
2010,04,04,14,43,14.60
2010,04,04,14,44,17.80
2010,04,04,14,45,8.10
2010,04,04,14,46,13.00
2010,04,04,14,47,16.30
2010,04,04,14,48,19.30
2010,04,04,14,49,27.40
2010,04,04,14,50,16.50
2010,04,04,14,51,20.50
2010,04,04,14,52,19.80
2010,04,04,14,53,12.90
2010,04,04,14,54,12.60
2010,04,04,14,55,16.50
2010,04,04,14,56,16.00
2010,04,04,14,57,13.00
2010,04,04,14,58,14.50
2010,04,04,14,59,14.60
2010,04,04,15,00,16.00
2010,04,04,15,01,11.60
2010,04,04,15,02,10.50
2010,04,04,15,03,11.00
2010,04,04,15,04,8.90
2010,04,04,15,05,11.10
2010,04,04,15,06,10.70
2010,04,04,15,07,15.90
2010,04,04,15,08,14.40
2010,04,04,15,09,17.90
2010,04,04,15,10,14.10
2010,04,04,15,11,14.60
2010,04,04,15,12,14.70
2010,04,04,15,13,14.20
2010,04,04,15,14,14.20
2010,04,04,15,15,13.80
2010,04,04,15,16,12.70
2010,04,04,15,17,8.00
2010,04,04,15,18,14.30
2010,04,04,15,19,11.10
2010,04,04,15,20,14.90
2010,04,04,15,21,13.50
2010,04,04,15,22,21.10
2010,04,04,15,23,17.00
2010,04,04,15,24,16.80
2010,04,04,15,25,13.90
2010,04,04,15,26,7.90
2010,04,04,15,27,12.70
2010,04,04,15,28,13.60
2010,04,04,15,29,15.50
2010,04,04,15,30,11.80
2010,04,04,15,31,13.10
2010,04,04,15,32,19.60
2010,04,04,15,33,16.60
2010,04,04,15,34,16.00
2010,04,04,15,35,8.70
2010,04,04,15,36,13.20
2010,04,04,15,37,13.40
2010,04,04,15,38,16.10
2010,04,04,15,39,10.10
2010,04,04,15,40,8.40
2010,04,04,15,41,11.60
2010,04,04,15,42,7.80
2010,04,04,15,43,11.60
2010,04,04,15,44,19.00
2010,04,04,15,45,10.80
2010,04,04,15,46,15.30
2010,04,04,15,47,19.30
2010,04,04,15,48,16.60
2010,04,04,15,49,8.30
2010,04,04,15,50,8.20
2010,04,04,15,51,12.80
2010,04,04,15,52,19.70
2010,04,04,15,53,12.10
2010,04,04,15,54,12.90
2010,04,04,15,55,12.10
2010,04,04,15,56,14.60
2010,04,04,15,57,14.50
2010,04,04,15,58,11.40
2010,04,04,15,59,10.20
2010,04,04,16,00,14.30
2010,04,04,16,01,18.80
2010,04,04,16,02,13.10
2010,04,04,16,03,11.40
2010,04,04,16,04,10.40
2010,04,04,16,05,21.10
2010,04,04,16,06,13.50
2010,04,04,16,07,7.70
2010,04,04,16,08,19.60
2010,04,04,16,09,19.70
2010,04,04,16,10,16.60
2010,04,04,16,11,13.20
2010,04,04,16,12,11.90
2010,04,04,16,13,8.50
2010,04,04,16,14,10.20
2010,04,04,16,15,11.40
2010,04,04,16,16,13.50
2010,04,04,16,17,18.20
2010,04,04,16,18,13.80
2010,04,04,16,19,9.20
2010,04,04,16,20,13.70
2010,04,04,16,21,11.70
2010,04,04,16,22,13.30
2010,04,04,16,23,12.90
2010,04,04,16,24,10.30
2010,04,04,16,25,11.50
2010,04,04,16,26,21.20
2010,04,04,16,27,16.00
2010,04,04,16,28,11.50
2010,04,04,16,29,18.10
2010,04,04,16,30,15.10
2010,04,04,16,31,13.60
2010,04,04,16,32,12.80
2010,04,04,16,33,14.90
2010,04,04,16,34,9.10
2010,04,04,16,35,11.50
2010,04,04,16,36,15.10
2010,04,04,16,37,16.00
2010,04,04,16,38,13.70
2010,04,04,16,39,18.30
2010,04,04,16,40,9.30
2010,04,04,16,41,10.80
2010,04,04,16,42,13.10
2010,04,04,16,43,12.00
2010,04,04,16,44,14.10
2010,04,04,16,45,9.90
2010,04,04,16,46,13.90
2010,04,04,16,47,9.50
2010,04,04,16,48,4.70
2010,04,04,16,49,8.20
2010,04,04,16,50,9.20
2010,04,04,16,51,18.30
2010,04,04,16,52,16.00
2010,04,04,16,53,13.80
2010,04,04,16,54,9.70
2010,04,04,16,55,14.40
2010,04,04,16,56,8.80
2010,04,04,16,57,11.50
2010,04,04,16,58,12.60
2010,04,04,16,59,15.10
2010,04,04,17,00,15.30
2010,04,04,17,01,13.70
2010,04,04,17,02,11.70
2010,04,04,17,03,17.70
2010,04,04,17,04,13.50
2010,04,04,17,05,8.20
2010,04,04,17,06,7.30
2010,04,04,17,07,9.00
2010,04,04,17,08,5.80
2010,04,04,17,09,7.30
2010,04,04,17,10,14.00
2010,04,04,17,11,17.50
2010,04,04,17,12,8.90
2010,04,04,17,13,12.00
2010,04,04,17,14,2.60
2010,04,04,17,15,10.30
2010,04,04,17,16,16.20
2010,04,04,17,17,18.10
2010,04,04,17,18,10.30
2010,04,04,17,19,8.60
2010,04,04,17,20,12.10
2010,04,04,17,21,10.80
2010,04,04,17,22,10.70
2010,04,04,17,23,10.50
2010,04,04,17,24,5.00
2010,04,04,17,25,7.30
2010,04,04,17,26,7.40
2010,04,04,17,27,6.70
2010,04,04,17,28,14.90
2010,04,04,17,29,8.70
2010,04,04,17,30,11.30
2010,04,04,17,31,12.30
2010,04,04,17,32,10.10
2010,04,04,17,33,6.90
2010,04,04,17,34,9.20
2010,04,04,17,35,10.50
2010,04,04,17,36,11.40
2010,04,04,17,37,7.50
2010,04,04,17,38,6.30
2010,04,04,17,39,10.60
2010,04,04,17,40,12.40
2010,04,04,17,41,13.60
2010,04,04,17,42,6.70
2010,04,04,17,43,8.20